sat.trackr.live / text

‹ back to catalog

COSMOS 2488 (RODNIK-S 7)

NORAD 39483 · 2013-076A

PAYLOAD ACTIVE UNKNOWN

§ Identity

Operator
Country
CIS
Launch date
2013-12-25
Launch site
PLMSC
Launch vehicle
Mass (kg)
RCS (m²)
1.56

External: N2YO · Heavens-Above · Gunter

§ Orbital elements

Epoch: 2026-09-20T04:24:33.619680Z

Period
115.86 min
Inclination
82.4806°
Eccentricity
0.0018505
Mean motion
12.42907914 rev/d
Perigee alt
1,479.7 km
Apogee alt
1,508.9 km
Semi-major
7,872.4 km
B*
-2.7457e-4
RAAN
109.5085°
Arg perigee
249.4178°
Mean anomaly
110.4916°
Rev number
57,769

§ Raw data

COSMOS 2488 (RODNIK-S 7)1 39483U 13076A   26263.18372245 -.00000028  00000+0 -27457-3 0  99942 39483  82.4806 109.5085 0018505 249.4178 110.4916 12.42907914577694

JSON: /api/v1/satellites/39483 · /tle

For live sub-satellite position, see the globe view (requires WebGL).

§ Visibility from observer

Set your observer location to see the next 7 days of passes ≥ 10°. The values pass through the URL so the page stays shareable.

No JS? Fill the form by hand. The geolocation button needs JavaScript.

§ Radio — SatNOGS DB

ModeDescriptionDownlinkUplink
FM UHF Unknown 387.175 MHz
FM UHF Unknown 388.687 MHz

2 transmitters · refreshed weekly from db.satnogs.org